TimeCST,TemperatureF,Dew PointF,Humidity,Sea Level PressureIn,VisibilityMPH,Wind Direction,Wind SpeedMPH,Gust SpeedMPH,PrecipitationIn,Events,Conditions,WindDirDegrees,DateUTC
12:53 AM,30.0,27.0,88,30.35,10.0,WSW,6.9,-,N/A,,Partly Cloudy,240,2013-03-02 06:53:00
1:53 AM,28.9,25.0,85,30.34,10.0,WSW,5.8,-,N/A,,Clear,240,2013-03-02 07:53:00
2:53 AM,30.9,27.0,85,30.32,10.0,WSW,6.9,-,N/A,,Overcast,240,2013-03-02 08:53:00
3:53 AM,30.9,28.0,89,30.30,10.0,SW,6.9,-,N/A,,Partly Cloudy,220,2013-03-02 09:53:00
4:53 AM,30.9,27.0,85,30.29,10.0,SW,9.2,-,N/A,,Clear,220,2013-03-02 10:53:00
5:53 AM,30.9,26.1,82,30.27,10.0,WSW,9.2,-,N/A,,Clear,250,2013-03-02 11:53:00
6:53 AM,34.0,26.1,73,30.28,10.0,West,10.4,-,N/A,,Clear,270,2013-03-02 12:53:00
7:53 AM,35.1,26.1,70,30.29,10.0,West,6.9,-,N/A,,Clear,270,2013-03-02 13:53:00
8:53 AM,41.0,28.9,62,30.30,10.0,West,11.5,-,N/A,,Clear,280,2013-03-02 14:53:00
9:53 AM,50.0,30.0,46,30.27,10.0,West,9.2,-,N/A,,Clear,280,2013-03-02 15:53:00
10:53 AM,60.1,28.0,30,30.25,10.0,NNW,13.8,-,N/A,,Clear,340,2013-03-02 16:53:00
11:53 AM,63.0,27.0,26,30.22,10.0,NNW,19.6,25.3,N/A,,Clear,330,2013-03-02 17:53:00
12:53 PM,64.0,27.0,25,30.20,10.0,North,10.4,24.2,N/A,,Clear,350,2013-03-02 18:53:00
1:53 PM,66.0,27.0,23,30.16,10.0,NNW,12.7,25.3,N/A,,Clear,340,2013-03-02 19:53:00
2:53 PM,66.0,27.0,23,30.13,10.0,North,9.2,-,N/A,,Clear,10,2013-03-02 20:53:00
3:53 PM,66.0,28.0,24,30.12,10.0,Calm,Calm,-,N/A,,Clear,0,2013-03-02 21:53:00
4:53 PM,66.0,28.0,24,30.11,10.0,Variable,3.5,-,N/A,,Clear,0,2013-03-02 22:53:00
5:53 PM,64.0,27.0,25,30.11,10.0,North,3.5,-,N/A,,Clear,10,2013-03-02 23:53:00
7:53 PM,48.9,34.0,56,30.14,10.0,South,6.9,-,N/A,,Clear,170,2013-03-03 01:53:00
8:53 PM,44.1,34.0,68,30.13,10.0,SW,6.9,-,N/A,,Clear,220,2013-03-03 02:53:00
9:53 PM,39.9,33.1,77,30.12,10.0,SSW,5.8,-,N/A,,Clear,210,2013-03-03 03:53:00
10:53 PM,39.0,33.1,79,30.09,10.0,SSW,8.1,-,N/A,,Clear,210,2013-03-03 04:53:00
11:53 PM,42.1,33.1,70,30.05,10.0,SSW,10.4,-,N/A,,Clear,210,2013-03-03 05:53:00